RYR3181 LOWW-EDDH

Flight info

Callsign RYR3181
Flight time 1h 10m
Altitude 34000
Route LANUX DCT LALUK DCT MILGU DCT SOGMA M748 RARUP RARUP3P
Aircraft B38M/M-SDE1FGHILORVWXY/HB1

Departure

Time 2026-04-26 19:53
Airport Vienna International Airport (LOWW)

Arrival

Time 2026-04-26 21:03
Airport Hamburg Helmut Schmidt Airport (EDDH)
Time Latitude Longitude Altitude Speed Heading
2026-04-26 19:30 48.12135 16.55349 628 ft 0 kts 295°
2026-04-26 19:45 48.12136 16.55343 619 ft 2 kts 295°
2026-04-26 19:46 48.12145 16.55308 614 ft 5 kts 274°
2026-04-26 19:46 48.12116 16.55260 618 ft 9 kts 207°
2026-04-26 19:46 48.12035 16.55201 617 ft 15 kts 206°
2026-04-26 19:46 48.11942 16.55189 617 ft 13 kts 182°
2026-04-26 19:47 48.11869 16.55249 621 ft 14 kts 117°
2026-04-26 19:47 48.11839 16.55338 616 ft 15 kts 115°
2026-04-26 19:47 48.11776 16.55535 612 ft 16 kts 116°
2026-04-26 19:47 48.11726 16.55691 623 ft 18 kts 116°
2026-04-26 19:48 48.11670 16.55863 624 ft 19 kts 116°
2026-04-26 19:48 48.11612 16.56040 615 ft 15 kts 116°
2026-04-26 19:48 48.11597 16.56084 622 ft 0 kts 117°
2026-04-26 19:49 48.11593 16.56096 617 ft 4 kts 116°
2026-04-26 19:49 48.11560 16.56196 615 ft 17 kts 116°
2026-04-26 19:49 48.11495 16.56396 617 ft 22 kts 116°
2026-04-26 19:49 48.11425 16.56610 622 ft 23 kts 116°
2026-04-26 19:50 48.11361 16.56808 620 ft 18 kts 116°
2026-04-26 19:50 48.11308 16.56971 618 ft 18 kts 116°
2026-04-26 19:50 48.11255 16.57132 624 ft 17 kts 116°
2026-04-26 19:50 48.11200 16.57302 614 ft 19 kts 116°
2026-04-26 19:51 48.11143 16.57477 621 ft 14 kts 116°
2026-04-26 19:51 48.11085 16.57531 614 ft 8 kts 203°
2026-04-26 19:51 48.11065 16.57517 622 ft 3 kts 205°
2026-04-26 19:51 48.11038 16.57498 612 ft 7 kts 205°
2026-04-26 19:52 48.10966 16.57436 623 ft 15 kts 237°
2026-04-26 19:52 48.10997 16.57277 617 ft 18 kts 295°
2026-04-26 19:52 48.11133 16.56864 616 ft 81 kts 297°
2026-04-26 19:52 48.11482 16.55782 619 ft 147 kts 294°
2026-04-26 19:53 48.12002 16.54236 947 ft 174 kts 300°
2026-04-26 19:53 48.12557 16.52578 1703 ft 184 kts 297°
2026-04-26 19:53 48.12808 16.50678 2467 ft 195 kts 263°
2026-04-26 19:53 48.12109 16.48820 2880 ft 224 kts 219°
2026-04-26 19:54 48.10703 16.47883 3796 ft 220 kts 188°
2026-04-26 19:54 48.09163 16.47526 4551 ft 230 kts 198°
2026-04-26 19:54 48.07753 16.46287 5085 ft 245 kts 229°
2026-04-26 19:54 48.06791 16.44158 5625 ft 255 kts 248°
2026-04-26 19:55 48.06506 16.41484 5771 ft 264 kts 282°
2026-04-26 19:55 48.06987 16.38997 7022 ft 248 kts 287°
2026-04-26 19:55 48.07445 16.36469 7825 ft 256 kts 285°
2026-04-26 19:55 48.07900 16.33880 8710 ft 257 kts 285°
2026-04-26 19:56 48.08377 16.31294 9606 ft 260 kts 291°
2026-04-26 19:56 48.09416 16.29106 10469 ft 262 kts 316°
2026-04-26 19:56 48.10960 16.27486 10931 ft 282 kts 327°
2026-04-26 19:56 48.12716 16.25952 11252 ft 302 kts 327°
2026-04-26 19:57 48.14586 16.24341 11634 ft 319 kts 328°
2026-04-26 19:57 48.16552 16.22667 12198 ft 328 kts 329°
2026-04-26 19:57 48.18543 16.20991 13017 ft 330 kts 329°
2026-04-26 19:57 48.20565 16.19298 13738 ft 335 kts 329°
2026-04-26 19:58 48.22613 16.17587 14446 ft 338 kts 329°
2026-04-26 19:58 48.24682 16.15859 15119 ft 342 kts 329°
2026-04-26 19:58 48.26773 16.14112 15797 ft 345 kts 329°
2026-04-26 19:58 48.28882 16.12350 16463 ft 349 kts 329°
2026-04-26 19:59 48.31007 16.10572 17106 ft 353 kts 329°
2026-04-26 19:59 48.33168 16.08763 17748 ft 356 kts 329°
2026-04-26 19:59 48.35345 16.06939 18343 ft 361 kts 329°
2026-04-26 19:59 48.37549 16.05090 18902 ft 364 kts 329°
2026-04-26 20:00 48.39746 16.03245 19425 ft 368 kts 329°
2026-04-26 20:00 48.42019 16.01334 19981 ft 371 kts 329°
2026-04-26 20:00 48.44252 15.99456 20506 ft 374 kts 328°
2026-04-26 20:00 48.46562 15.97515 21011 ft 378 kts 328°
2026-04-26 20:01 48.48846 15.95587 21500 ft 382 kts 328°
2026-04-26 20:01 48.51174 15.93622 21990 ft 386 kts 328°
2026-04-26 20:01 48.53521 15.91639 22489 ft 389 kts 328°
2026-04-26 20:01 48.55894 15.89632 22982 ft 392 kts 328°
2026-04-26 20:02 48.58284 15.87610 23464 ft 396 kts 328°
2026-04-26 20:02 48.60695 15.85567 23912 ft 399 kts 328°
2026-04-26 20:02 48.63130 15.83501 24323 ft 402 kts 328°
2026-04-26 20:02 48.64746 15.82129 24607 ft 403 kts 327°
2026-04-26 20:03 48.68031 15.79336 25154 ft 406 kts 327°
2026-04-26 20:03 48.70490 15.77244 25588 ft 407 kts 327°
2026-04-26 20:03 48.72972 15.75129 26002 ft 409 kts 327°
2026-04-26 20:03 48.75462 15.73005 26410 ft 411 kts 327°
2026-04-26 20:04 48.77954 15.70877 26826 ft 413 kts 327°
2026-04-26 20:04 48.80463 15.68732 27217 ft 415 kts 327°
2026-04-26 20:04 48.82980 15.66578 27603 ft 416 kts 327°
2026-04-26 20:04 48.85510 15.64410 27994 ft 418 kts 327°
2026-04-26 20:05 48.88037 15.62241 28373 ft 420 kts 327°
2026-04-26 20:05 48.90579 15.60041 28743 ft 422 kts 326°
2026-04-26 20:05 48.93140 15.57823 29157 ft 423 kts 327°
2026-04-26 20:05 48.95698 15.55604 29528 ft 424 kts 326°
2026-04-26 20:06 48.98267 15.53374 29836 ft 427 kts 326°
2026-04-26 20:06 49.00859 15.51122 30130 ft 429 kts 326°
2026-04-26 20:06 49.03455 15.48863 30449 ft 431 kts 326°
2026-04-26 20:06 49.06064 15.46590 30729 ft 433 kts 326°
2026-04-26 20:07 49.08676 15.44311 31004 ft 434 kts 326°
2026-04-26 20:07 49.11308 15.42012 31306 ft 435 kts 326°
2026-04-26 20:07 49.13931 15.39719 31682 ft 434 kts 326°
2026-04-26 20:07 49.16543 15.37432 32096 ft 433 kts 326°
2026-04-26 20:08 49.19150 15.35147 32512 ft 431 kts 327°
2026-04-26 20:08 49.21710 15.32900 32906 ft 429 kts 327°
2026-04-26 20:08 49.24293 15.30629 33295 ft 428 kts 327°
2026-04-26 20:08 49.26876 15.28358 33664 ft 427 kts 326°
2026-04-26 20:09 49.29444 15.26095 34033 ft 426 kts 326°
2026-04-26 20:09 49.32013 15.23829 34275 ft 427 kts 326°
2026-04-26 20:09 49.37149 15.19291 34270 ft 424 kts 326°
2026-04-26 20:10 49.42265 15.14760 34286 ft 425 kts 326°
2026-04-26 20:10 49.47374 15.10223 34269 ft 425 kts 327°
2026-04-26 20:11 49.52492 15.05667 34268 ft 425 kts 327°
2026-04-26 20:12 49.60159 14.98823 34270 ft 425 kts 327°
2026-04-26 20:12 49.65281 14.94235 34272 ft 426 kts 327°
2026-04-26 20:13 49.70414 14.89629 34275 ft 426 kts 328°
2026-04-26 20:13 49.75515 14.85037 34269 ft 427 kts 328°
2026-04-26 20:14 49.80640 14.80414 34278 ft 427 kts 327°
2026-04-26 20:14 49.85799 14.75748 34275 ft 427 kts 327°
2026-04-26 20:15 49.90896 14.71126 34269 ft 427 kts 327°
2026-04-26 20:15 49.96019 14.66471 34297 ft 428 kts 328°
2026-04-26 20:16 50.01158 14.61787 34288 ft 427 kts 328°
2026-04-26 20:16 50.06283 14.57105 34292 ft 428 kts 328°
2026-04-26 20:17 50.11409 14.52411 34293 ft 427 kts 328°
2026-04-26 20:17 50.16533 14.47707 34292 ft 428 kts 328°
2026-04-26 20:18 50.21656 14.42992 34294 ft 428 kts 328°
2026-04-26 20:18 50.26783 14.38262 34275 ft 428 kts 328°
2026-04-26 20:19 50.31921 14.33509 34284 ft 429 kts 328°
2026-04-26 20:19 50.37051 14.28751 34291 ft 429 kts 328°
2026-04-26 20:20 50.42156 14.24004 34287 ft 429 kts 328°
2026-04-26 20:20 50.47285 14.19223 34308 ft 429 kts 327°
2026-04-26 20:21 50.52386 14.14458 34292 ft 424 kts 327°
2026-04-26 20:21 50.57449 14.09713 34293 ft 425 kts 327°
2026-04-26 20:22 50.62528 14.04943 34286 ft 424 kts 327°
2026-04-26 20:22 50.67598 14.00173 34288 ft 424 kts 327°
2026-04-26 20:23 50.72661 13.95396 34292 ft 424 kts 327°
2026-04-26 20:23 50.77713 13.90618 34294 ft 422 kts 326°
2026-04-26 20:24 50.82605 13.85555 34301 ft 421 kts 323°
2026-04-26 20:24 50.87417 13.80281 34291 ft 421 kts 323°
2026-04-26 20:25 50.92245 13.75020 34294 ft 421 kts 323°
2026-04-26 20:25 50.97065 13.69759 34292 ft 421 kts 323°
2026-04-26 20:26 51.01882 13.64489 34308 ft 421 kts 323°
2026-04-26 20:26 51.06688 13.59216 34293 ft 419 kts 323°
2026-04-26 20:27 51.11453 13.53975 34290 ft 419 kts 323°
2026-04-26 20:27 51.16247 13.48689 34296 ft 419 kts 323°
2026-04-26 20:28 51.21038 13.43393 34295 ft 419 kts 322°
2026-04-26 20:28 51.25822 13.38090 34290 ft 420 kts 323°
2026-04-26 20:29 51.30616 13.32764 34309 ft 418 kts 323°
2026-04-26 20:29 51.35372 13.27465 34294 ft 416 kts 323°
2026-04-26 20:30 51.40122 13.22158 34290 ft 417 kts 323°
2026-04-26 20:30 51.44873 13.16838 34292 ft 416 kts 322°
2026-04-26 20:31 51.49621 13.11508 34289 ft 417 kts 322°
2026-04-26 20:31 51.54366 13.06169 34283 ft 416 kts 323°
2026-04-26 20:32 51.59195 13.01011 34293 ft 415 kts 325°
2026-04-26 20:32 51.64035 12.96047 34282 ft 416 kts 325°
2026-04-26 20:33 51.68898 12.91023 34289 ft 416 kts 325°
2026-04-26 20:33 51.73765 12.85980 34292 ft 415 kts 325°
2026-04-26 20:34 51.78629 12.80926 34295 ft 415 kts 325°
2026-04-26 20:34 51.83482 12.75870 34318 ft 415 kts 324°
2026-04-26 20:35 51.88333 12.70804 34288 ft 414 kts 325°
2026-04-26 20:35 51.92353 12.66597 34287 ft 414 kts 325°
2026-04-26 20:36 51.97196 12.61514 34290 ft 414 kts 325°
2026-04-26 20:36 52.02036 12.56421 34286 ft 414 kts 325°
2026-04-26 20:37 52.06861 12.51332 34289 ft 414 kts 325°
2026-04-26 20:37 52.11701 12.46213 34319 ft 414 kts 325°
2026-04-26 20:38 52.16499 12.41125 34301 ft 411 kts 325°
2026-04-26 20:38 52.21267 12.36056 34291 ft 412 kts 325°
2026-04-26 20:39 52.26096 12.30908 34289 ft 412 kts 325°
2026-04-26 20:39 52.30867 12.25741 34285 ft 411 kts 321°
2026-04-26 20:40 52.35456 12.20165 34299 ft 413 kts 322°
2026-04-26 20:40 52.40089 12.14591 34301 ft 413 kts 322°
2026-04-26 20:41 52.44719 12.09018 34293 ft 413 kts 322°
2026-04-26 20:41 52.47005 12.06260 33487 ft 415 kts 322°
2026-04-26 20:41 52.49351 12.03428 32400 ft 422 kts 322°
2026-04-26 20:41 52.51757 12.00517 31394 ft 427 kts 322°
2026-04-26 20:42 52.54125 11.97649 30474 ft 430 kts 322°
2026-04-26 20:42 52.56550 11.94711 29397 ft 434 kts 322°
2026-04-26 20:42 52.58986 11.91753 28353 ft 436 kts 322°
2026-04-26 20:42 52.61419 11.88794 27606 ft 433 kts 322°
2026-04-26 20:43 52.63818 11.85873 27130 ft 424 kts 322°
2026-04-26 20:43 52.66168 11.83007 26667 ft 417 kts 322°
2026-04-26 20:43 52.68484 11.80179 26148 ft 411 kts 322°
2026-04-26 20:43 52.70774 11.77379 25649 ft 406 kts 322°
2026-04-26 20:44 52.73023 11.74626 25164 ft 400 kts 322°
2026-04-26 20:44 52.75246 11.71900 24693 ft 395 kts 322°
2026-04-26 20:44 52.77441 11.69206 24245 ft 391 kts 322°
2026-04-26 20:44 52.79604 11.66547 23771 ft 386 kts 322°
2026-04-26 20:45 52.81749 11.63907 23253 ft 382 kts 322°
2026-04-26 20:45 52.83841 11.61329 22814 ft 377 kts 322°
2026-04-26 20:45 52.85951 11.58726 22392 ft 371 kts 322°
2026-04-26 20:45 52.87980 11.56219 21980 ft 366 kts 322°
2026-04-26 20:46 52.90005 11.53715 21573 ft 362 kts 322°
2026-04-26 20:46 52.92008 11.51235 21182 ft 357 kts 322°
2026-04-26 20:46 52.93989 11.48780 20787 ft 353 kts 322°
2026-04-26 20:46 52.95946 11.46351 20409 ft 350 kts 322°
2026-04-26 20:47 52.97867 11.43964 20360 ft 345 kts 322°
2026-04-26 20:47 52.99192 11.42316 20290 ft 357 kts 322°
2026-04-26 20:47 53.01889 11.38957 20258 ft 377 kts 322°
2026-04-26 20:47 53.04025 11.36293 20257 ft 391 kts 322°
2026-04-26 20:48 53.06242 11.33526 20255 ft 403 kts 322°
2026-04-26 20:48 53.08496 11.30708 20256 ft 409 kts 322°
2026-04-26 20:48 53.10777 11.27852 20274 ft 410 kts 322°
2026-04-26 20:48 53.13050 11.25003 20264 ft 411 kts 322°
2026-04-26 20:49 53.15338 11.22130 20277 ft 411 kts 322°
2026-04-26 20:49 53.17630 11.19249 20282 ft 412 kts 322°
2026-04-26 20:49 53.19918 11.16369 20284 ft 412 kts 322°
2026-04-26 20:49 53.22200 11.13493 20300 ft 412 kts 322°
2026-04-26 20:50 53.24480 11.10615 20289 ft 411 kts 322°
2026-04-26 20:50 53.26761 11.07731 20282 ft 411 kts 322°
2026-04-26 20:50 53.29033 11.04856 20284 ft 411 kts 322°
2026-04-26 20:50 53.31307 11.01973 20282 ft 411 kts 322°
2026-04-26 20:51 53.33583 10.99085 20283 ft 411 kts 322°
2026-04-26 20:51 53.35859 10.96192 20287 ft 411 kts 322°
2026-04-26 20:51 53.38125 10.93309 20197 ft 401 kts 322°
2026-04-26 20:51 53.40310 10.90524 19385 ft 391 kts 322°
2026-04-26 20:52 53.42459 10.87782 18525 ft 383 kts 322°
2026-04-26 20:52 53.44554 10.85106 17576 ft 376 kts 322°
2026-04-26 20:52 53.46618 10.82466 16712 ft 370 kts 322°
2026-04-26 20:52 53.48647 10.79868 15888 ft 363 kts 322°
2026-04-26 20:53 53.50635 10.77318 15114 ft 356 kts 322°
2026-04-26 20:53 53.52562 10.74843 14415 ft 349 kts 322°
2026-04-26 20:53 53.54468 10.72392 13724 ft 341 kts 323°
2026-04-26 20:53 53.56335 10.69989 13032 ft 334 kts 323°
2026-04-26 20:54 53.58147 10.67654 12457 ft 324 kts 323°
2026-04-26 20:54 53.59913 10.65376 11931 ft 314 kts 323°
2026-04-26 20:54 53.61619 10.63173 11488 ft 304 kts 323°
2026-04-26 20:54 53.63252 10.61062 11403 ft 284 kts 323°
2026-04-26 20:55 53.64778 10.59088 11397 ft 273 kts 323°
2026-04-26 20:55 53.66282 10.57140 11333 ft 271 kts 323°
2026-04-26 20:55 53.67762 10.55223 10870 ft 268 kts 323°
2026-04-26 20:55 53.69239 10.53307 10330 ft 267 kts 323°
2026-04-26 20:56 53.70711 10.51394 9752 ft 266 kts 323°
2026-04-26 20:56 53.72168 10.49500 9197 ft 264 kts 322°
2026-04-26 20:56 53.73618 10.47612 8638 ft 262 kts 322°
2026-04-26 20:56 53.75043 10.45757 8088 ft 261 kts 322°
2026-04-26 20:57 53.76482 10.43882 7562 ft 259 kts 322°
2026-04-26 20:57 53.77906 10.42024 7028 ft 259 kts 322°
2026-04-26 20:57 53.79325 10.40160 6505 ft 257 kts 319°
2026-04-26 20:57 53.80353 10.37757 5948 ft 254 kts 287°
2026-04-26 20:58 53.80488 10.34810 5538 ft 254 kts 261°
2026-04-26 20:58 53.79819 10.32043 5137 ft 258 kts 235°
2026-04-26 20:58 53.78605 10.29827 4768 ft 258 kts 227°
2026-04-26 20:58 53.77374 10.27649 4388 ft 255 kts 229°
2026-04-26 20:59 53.76198 10.25405 4021 ft 254 kts 230°
2026-04-26 20:59 53.75048 10.23120 3664 ft 256 kts 231°
2026-04-26 20:59 53.73911 10.20831 3381 ft 250 kts 231°
2026-04-26 20:59 53.72830 10.18647 3014 ft 235 kts 231°
2026-04-26 21:00 53.71819 10.16598 2672 ft 220 kts 231°
2026-04-26 21:00 53.70863 10.14664 2365 ft 211 kts 232°
2026-04-26 21:00 53.69941 10.12793 2069 ft 201 kts 232°
2026-04-26 21:00 53.69112 10.11115 1814 ft 170 kts 232°
2026-04-26 21:01 53.68403 10.09680 1594 ft 149 kts 233°
2026-04-26 21:01 53.67752 10.08360 1383 ft 145 kts 233°
2026-04-26 21:01 53.67104 10.07047 1133 ft 145 kts 233°
2026-04-26 21:01 53.66457 10.05737 977 ft 146 kts 233°
2026-04-26 21:02 53.65794 10.04418 753 ft 147 kts 232°
2026-04-26 21:02 53.65155 10.03117 554 ft 147 kts 233°
2026-04-26 21:02 53.64513 10.01788 374 ft 146 kts 232°
2026-04-26 21:02 53.63857 10.00489 171 ft 145 kts 232°
2026-04-26 21:03 53.63221 9.99195 57 ft 132 kts 231°
2026-04-26 21:03 53.62767 9.98279 55 ft 69 kts 230°
2026-04-26 21:03 53.62518 9.97797 51 ft 24 kts 205°
2026-04-26 21:03 53.62439 9.97836 50 ft 11 kts 135°
2026-04-26 21:04 53.62430 9.97957 51 ft 9 kts 79°
2026-04-26 21:04 53.62433 9.97983 53 ft 0 kts 76°
2026-04-26 21:04 53.62435 9.97996 48 ft 3 kts 76°
2026-04-26 21:05 53.62456 9.98077 48 ft 13 kts 59°
2026-04-26 21:05 53.62531 9.98239 53 ft 17 kts 49°
2026-04-26 21:05 53.62605 9.98386 52 ft 15 kts 50°
2026-04-26 21:05 53.62673 9.98522 53 ft 15 kts 50°
2026-04-26 21:06 53.62737 9.98651 48 ft 15 kts 50°
2026-04-26 21:06 53.62807 9.98794 53 ft 17 kts 50°
2026-04-26 21:06 53.62874 9.98930 51 ft 14 kts 50°
2026-04-26 21:06 53.62941 9.99063 53 ft 16 kts 50°
2026-04-26 21:07 53.63016 9.99217 53 ft 18 kts 52°
2026-04-26 21:07 53.63086 9.99374 51 ft 19 kts 53°
2026-04-26 21:07 53.63169 9.99566 52 ft 20 kts 50°
2026-04-26 21:07 53.63267 9.99743 53 ft 20 kts 45°
2026-04-26 21:08 53.63355 9.99918 53 ft 18 kts 51°
2026-04-26 21:08 53.63422 10.00055 53 ft 13 kts 58°
2026-04-26 21:08 53.63404 10.00171 51 ft 9 kts 139°
2026-04-26 21:08 53.63357 10.00208 53 ft 7 kts 160°
2026-04-26 21:09 53.63329 10.00241 51 ft 3 kts 110°
2026-04-26 21:09 53.63329 10.00271 52 ft 3 kts 87°
2026-04-26 21:09 53.63331 10.00321 50 ft 5 kts 85°
2026-04-26 21:09 53.63332 10.00353 53 ft 0 kts 85°